This demonstration page uses our WeatherBlox Daily Observations layout. Learn more.

Left ArrowRight Arrow

47.50024, -111.30081

Hourly Observations for March 20, 2015

Temp ( °F °C ) Dew Point ( °F °C ) Humidity (%) Winds ( mph kmh ) Pressure ( in mb ) Visibility ( mi km ) Precip ( " mm )
12:53 am 00:53 Clear 50 10 22 -5.6 33 33 SW 20 31 29.93 1014 10 16 0.00 0.00
1:53 am 01:53 Clear 48 8.9 23 -5 37 37 SW 13 20 29.95 1014 10 16 0.00 0.00
2:53 am 02:53 Clear 44 6.7 23 -5 43 43 SW 9 15 29.98 1015 10 16 0.00 0.00
3:53 am 03:53 Clear 46 7.8 24 -4.4 42 42 SW 15 24 29.97 1015 10 16 0.00 0.00
4:53 am 04:53 Clear 44 6.7 24 -4.4 45 45 WSW 12 19 30.00 1016 10 16 0.00 0.00
5:53 am 05:53 Clear 45 7.2 24 -4.4 44 44 WSW 9 15 30.02 1017 10 16 0.00 0.00
6:53 am 06:53 Clear 47 8.3 24 -4.4 41 41 WSW 13 20 30.03 1017 10 16 0.00 0.00
7:53 am 07:53 Mostly Sunny 47 8.3 24 -4.4 41 41 WSW 10 17 30.04 1017 10 16 0.00 0.00
8:53 am 08:53 Cloudy 50 10 25 -3.9 38 38 WSW 14 22 30.05 1018 10 16 0.00 0.00
9:53 am 09:53 Cloudy 52 11.1 25 -3.9 35 35 WSW 12 19 30.06 1018 10 16 0.00 0.00
10:53 am 10:53 Cloudy 55 12.8 25 -3.9 31 31 W 10 17 30.05 1018 10 16 0.00 0.00
11:53 am 11:53 Cloudy 59 15 24 -4.4 26 26 WSW 16 26 30.03 1017 10 16 0.00 0.00
12:53 pm 12:53 Sunny 63 17.2 23 -5 22 22 WSW 21 33 29.99 1016 10 16 0.00 0.00
1:53 pm 13:53 Sunny 65 18.3 20 -6.7 18 18 WSW 15 24 29.97 1015 10 16 0.00 0.00
2:53 pm 14:53 Sunny 65 18.3 23 -5 20 20 SSW 15 24 29.96 1015 10 16 0.00 0.00
3:53 pm 15:53 Sunny 64 17.8 23 -5 21 21 SW 8 13 29.95 1014 10 16 0.00 0.00
4:53 pm 16:53 Sunny 64 17.8 24 -4.4 22 22 WSW 8 13 29.95 1014 10 16 0.00 0.00
5:53 pm 17:53 Sunny 64 17.8 23 -5 21 21 W 7 11 29.94 1014 10 16 0.00 0.00
6:53 pm 18:53 Sunny 60 15.6 25 -3.9 26 26 WSW 3 6 29.94 1014 10 16 0.00 0.00
7:53 pm 19:53 Clear 53 11.7 25 -3.9 34 34 W 7 11 29.96 1015 10 16 0.00 0.00
8:53 pm 20:53 Mostly Clear 50 10 28 -2.2 43 43 WSW 8 13 29.96 1015 10 16 0.00 0.00
9:53 pm 21:53 Clear 50 10 28 -2.2 43 43 SW 8 13 29.95 1014 10 16 0.00 0.00
10:53 pm 22:53 Clear 52 11.1 26 -3.3 37 37 Calm 29.93 1014 10 16 0.00 0.00
11:53 pm 23:53 Clear 49 9.4 29 -1.7 46 46 SSW 9 15 29.93 1014 10 16 0.00 0.00

Powered by AerisWeather